Weather History for Bozeman, MT

Change the Weather History Date:

Monday, December 24, 2012

  Actual Average Record
Temperature  
Mean Temperature 14 °F 20 °F  
Max Temperature 26 °F 33 °F 53 °F (1959)
Min Temperature 1 °F 8 °F -46 °F (1983)
Degree Days  
Heating Degree Days 51    
Month to date heating degree days 962  
Since 1 July heating degree days 2858  
Cooling Degree Days 0    
Month to date cooling degree days 0  
Year to date cooling degree days 284  
Moisture  
Dew Point 6 °F    
Average Humidity 73    
Maximum Humidity 84    
Minimum Humidity 62    
Precipitation  
Precipitation T in 0.01 in 0.28 in (1941)
Month to date precipitation 0.70 0.41  
Year to date precipitation 9.35 13.88  
Snow  
Snow 0.00 in 0.20 in 4.00 in (1977)
Month to date snowfall 4.1 4.9  
Since 1 July snowfall 14.6 12.3  
Snow Depth 0.00 in    
Sea Level Pressure  
Sea Level Pressure 30.05 in    
Wind  
Wind Speed 7 mph (WSW)    
Max Wind Speed 15 mph    
Max Gust Speed 17 mph    
Visibility 4 miles    
Events Snow    
T = Trace of Precipitation, MM = Missing Value Source: NWS Daily Summary

Daily Weather History Graph

Daily Weather History Graph

Search for Another Location

Airport:

Trip Planner

Search our weather history database for the weather conditions in past years. The results will help you decide how hot, cold, wet, or windy it might be!

Date:

Astronomy

Dec. 24, 2012 Rise Set
Actual Time 8:04 AM MST 4:44 PM MST
Civil Twilight 7:29 AM MST 5:19 PM MST
Nautical Twilight 6:52 AM MST 5:57 PM MST
Astronomical Twilight 6:15 AM MST 6:33 PM MST
Moon 2:18 PM MST (12/24) 4:41 AM MST (12/24)
Length of Visible Light 9h 49m
Length of Day
8h 40m
Waxing Gibbous, 89% of the Moon is Illuminated
Dec 24
Waxing Gibbous
Dec 28
Full
Jan 4
Last Quarter
Jan 11
New
Jan 18
First Quarter

Hourly Weather History & Observations

Time (MST) Temp. Windchill Dew Point Humidity Pressure Visibility Wind Dir Wind Speed Gust Speed Precip Events Conditions
12:56 AM 25.0 °F - 14.0 °F 63% 29.81 in 10.0 mi Calm Calm - N/A   Mostly Cloudy
1:56 AM 23.0 °F 15.8 °F 15.1 °F 72% 29.81 in 10.0 mi West 5.8 mph - N/A   Overcast
2:56 AM 21.0 °F 13.4 °F 15.1 °F 78% 29.82 in 10.0 mi NW 5.8 mph - N/A   Mostly Cloudy
3:56 AM 21.9 °F 15.7 °F 16.0 °F 78% 29.83 in 10.0 mi West 4.6 mph - N/A   Clear
4:56 AM 19.9 °F 14.9 °F 14.0 °F 78% 29.86 in 10.0 mi NE 3.5 mph - N/A   Overcast
5:56 AM 19.9 °F - 15.1 °F 81% 29.89 in 10.0 mi Calm Calm - N/A   Overcast
6:56 AM 19.0 °F 13.9 °F 14.0 °F 81% 29.93 in 10.0 mi West 3.5 mph - N/A   Overcast
7:56 AM 15.1 °F 0.5 °F 10.0 °F 80% 29.96 in 8.0 mi WSW 13.8 mph - 0.00 in   Overcast
8:56 AM 14.0 °F -0.2 °F 8.1 °F 77% 29.99 in 10.0 mi WSW 12.7 mph - N/A   Overcast
9:56 AM 12.9 °F -0.2 °F 7.0 °F 77% 30.01 in 2.5 mi WSW 10.4 mph - 0.00 in Snow Light Snow
10:04 AM 14.0 °F 0.5 °F 8.6 °F 79% 29.86 in 3.0 mi WSW 11.5 mph - 0.00 in Snow Light Snow
10:23 AM 12.2 °F -1.0 °F 8.6 °F 85% 29.87 in 2.0 mi WSW 10.4 mph - 0.00 in Snow Light Snow
10:28 AM 12.2 °F -1.0 °F 8.6 °F 85% 29.87 in 1.2 mi WSW 10.4 mph - 0.00 in Snow Light Snow
10:38 AM 12.2 °F -1.8 °F 8.6 °F 85% 29.88 in 0.8 mi WSW 11.5 mph - 0.00 in Snow Light Snow
10:56 AM 12.9 °F 0.7 °F 8.1 °F 81% 30.06 in 0.8 mi WSW 9.2 mph - 0.00 in Snow Light Snow
11:30 AM 12.2 °F 1.7 °F 8.6 °F 85% 29.90 in 1.2 mi WSW 6.9 mph - 0.00 in Snow Light Snow
11:56 AM 12.9 °F 1.6 °F 9.0 °F 84% 30.07 in 1.0 mi SW 8.1 mph - 0.00 in Snow Light Snow
12:23 PM 14.0 °F 0.5 °F 8.6 °F 79% 29.91 in 1.0 mi WSW 11.5 mph - 0.00 in Snow Light Snow
12:56 PM 12.9 °F -0.2 °F 9.0 °F 84% 30.10 in 0.8 mi West 10.4 mph - 0.00 in Snow Light Snow
1:02 PM 12.2 °F -0.2 °F 8.6 °F 85% 29.93 in 1.0 mi West 9.2 mph - 0.00 in Snow Light Snow
1:10 PM 12.2 °F 1.7 °F 8.6 °F 85% 29.93 in 1.2 mi NW 6.9 mph - 0.00 in Snow Light Snow
1:21 PM 12.2 °F 4.3 °F 8.6 °F 85% 29.93 in 1.2 mi WNW 4.6 mph - 0.00 in Snow Light Snow
1:39 PM 12.2 °F -0.2 °F 6.8 °F 79% 29.95 in 0.5 mi SW 9.2 mph - 0.00 in Snow Snow
1:47 PM 10.4 °F -4.1 °F 6.8 °F 85% 29.95 in 0.5 mi SW 11.5 mph - 0.00 in Snow Snow
1:56 PM 10.9 °F -3.4 °F 6.1 °F 81% 30.14 in 0.5 mi SW 11.5 mph - 0.00 in Snow Snow
2:09 PM 10.4 °F -4.8 °F 5.0 °F 79% 29.96 in 0.8 mi SW 12.7 mph - 0.00 in Snow Light Snow
2:20 PM 10.4 °F -3.3 °F 5.0 °F 79% 29.96 in 1.0 mi SW 10.4 mph - 0.00 in Snow Light Snow
2:56 PM 9.0 °F -4.2 °F 3.9 °F 80% 30.19 in 1.0 mi WSW 9.2 mph - 0.00 in Snow Light Snow
3:05 PM 8.6 °F -3.7 °F 5.0 °F 85% 29.99 in 0.8 mi WSW 8.1 mph - 0.00 in Snow Light Snow
3:18 PM 8.6 °F -2.6 °F 3.2 °F 79% 30.00 in 1.0 mi WSW 6.9 mph - 0.00 in Snow Light Snow
3:26 PM 8.6 °F -1.3 °F 5.0 °F 85% 30.01 in 0.8 mi SW 5.8 mph - 0.00 in Snow Light Snow
3:41 PM 8.6 °F 2.0 °F 5.0 °F 85% 30.02 in 1.0 mi SW 3.5 mph - 0.00 in Snow Light Snow
3:56 PM 9.0 °F 2.4 °F 3.9 °F 80% 30.22 in 1.2 mi SSW 3.5 mph - 0.00 in Snow Light Snow
4:56 PM 8.1 °F -3.2 °F 3.0 °F 80% 30.27 in 1.2 mi SW 6.9 mph - 0.00 in Snow Light Snow
5:02 PM 8.6 °F -1.3 °F 3.2 °F 79% 30.06 in 2.0 mi SW 5.8 mph - 0.00 in Snow Light Snow
5:24 PM 8.6 °F -2.6 °F 3.2 °F 79% 30.07 in 1.5 mi WSW 6.9 mph - 0.00 in Snow Light Snow
5:51 PM 6.8 °F -4.8 °F 1.4 °F 79% 30.09 in 2.5 mi WSW 6.9 mph - 0.00 in Snow Light Snow
5:56 PM 7.0 °F -5.7 °F 1.9 °F 80% 30.30 in 2.5 mi WSW 8.1 mph - 0.00 in Snow Light Snow
6:03 PM 6.8 °F -5.9 °F 1.4 °F 79% 30.09 in 3.0 mi WSW 8.1 mph - 0.00 in Snow Light Snow
6:32 PM 6.8 °F -5.9 °F 1.4 °F 79% 30.11 in 2.0 mi WSW 8.1 mph - 0.00 in Snow Light Snow
6:38 PM 6.8 °F -3.5 °F 1.4 °F 79% 30.11 in 1.8 mi WSW 5.8 mph - 0.00 in Snow Light Snow
6:56 PM 7.0 °F -3.3 °F 1.9 °F 80% 30.34 in 1.8 mi WSW 5.8 mph - 0.00 in Snow Light Snow
7:04 PM 6.8 °F -3.5 °F 1.4 °F 79% 30.12 in 2.0 mi WSW 5.8 mph - 0.00 in Snow Light Snow
7:24 PM 6.8 °F -2.0 °F 1.4 °F 79% 30.13 in 2.5 mi SW 4.6 mph - 0.00 in Snow Light Snow
7:39 PM 6.8 °F -2.0 °F 1.4 °F 79% 30.13 in 3.0 mi SW 4.6 mph - 0.00 in Snow Light Snow
7:56 PM 6.1 °F -4.3 °F 1.0 °F 80% 30.36 in 3.0 mi SW 5.8 mph - 0.00 in Snow Light Snow
8:52 PM 6.8 °F -2.0 °F 1.4 °F 79% 30.14 in 2.5 mi SW 4.6 mph - 0.00 in Snow Light Snow
8:56 PM 6.1 °F -4.3 °F 1.0 °F 80% 30.38 in 2.5 mi SW 5.8 mph - 0.00 in Snow Light Snow
9:18 PM 6.8 °F -2.0 °F 1.4 °F 79% 30.15 in 3.0 mi SW 4.6 mph - 0.00 in   Haze
9:56 PM 3.0 °F -9.3 °F -2.0 °F 80% 30.42 in 9.0 mi WSW 6.9 mph - 0.00 in   Scattered Clouds
10:56 PM 3.0 °F -6.4 °F -2.9 °F 76% 30.42 in 10.0 mi SSW 4.6 mph - N/A   Mostly Cloudy
11:56 PM 1.0 °F - -2.9 °F 83% 30.43 in 10.0 mi Calm Calm - N/A   Mostly Cloudy